This demonstration page uses our WeatherBlox Daily Observations layout. Learn more.

Left ArrowRight Arrow

39.01783, -85.05884

Hourly Observations for February 9, 2020

Temp ( °F °C ) Dew Point ( °F °C ) Humidity (%) Winds ( mph kmh ) Pressure ( in mb ) Visibility ( mi km ) Precip ( " mm )
12:38 am 00:38 Cloudy 29 -1.7 26 -3.3 89 89 SSW 3 6 30.37 1029 7 11.26538 0 0
12:52 am 00:52 Cloudy with Mist and Fog 29 -1.7 25 -3.9 85 85 SSW 3 6 30.33 1027 6 9.65604 0 0
1:52 am 01:52 Cloudy with Mist and Fog 28 -2.2 25 -3.9 88 88 SW 6 9 30.35 1028 6 9.65604 0 0
2:52 am 02:52 Clear with Mist and Fog 27 -2.8 24 -4.4 89 89 SW 3 6 30.38 1029 5 8.0467 0 0
3:52 am 03:52 Mostly Cloudy with Mist and Fog 25 -3.9 23 -5 92 92 SSW 3 6 30.38 1029 4 6.43736 0 0
4:52 am 04:52 Mostly Cloudy with Mist and Fog 24 -4.4 21 -6.1 88 88 S 3 6 30.38 1029 5 8.0467 0 0
5:52 am 05:52 Mostly Cloudy with Mist and Fog 25 -3.9 23 -5 92 92 SE 6 9 30.38 1029 4 6.43736 0 0
6:52 am 06:52 Cloudy with Mist and Fog 25 -3.9 22 -5.6 88 88 S 6 9 30.39 1029 4 6.43736 0 0
7:41 am 07:41 Cloudy with Mist and Fog 25 -3.9 22 -5.6 88 88 S 8 13 30.44 1031 2.5 4.02335 0 0
7:52 am 07:52 Mostly Cloudy with Mist and Fog 25 -3.9 22 -5.6 88 88 S 7 11 30.4 1029 3 4.82802 0 0
8:52 am 08:52 Mostly Cloudy with Mist and Fog 28 -2.2 25 -3.9 88 88 SSE 7 11 30.39 1029 3 4.82802 0 0
9:52 am 09:52 Mostly Cloudy with Haze 30 -1.1 25 -3.9 82 82 S 12 19 30.4 1030 5 8.0467 0 0
10:52 am 10:52 Cloudy with Haze 30 -1.1 25 -3.9 82 82 S 12 19 30.4 1030 6 9.65604 0 0
11:52 am 11:52 Cloudy 32 0 26 -3.3 79 79 SE 12 19 30.37 1028 7 11.26538 0 0
12:52 pm 12:52 Cloudy 35 1.7 27 -2.8 72 72 SSE 10 17 30.33 1027 8 12.87472 0 0
1:39 pm 13:39 Cloudy with Light Snow 34 1.1 28 -2.2 79 79 S 13 20 30.32 1027 1 1.60934 0.001 0.001
1:52 pm 13:52 Cloudy with Light Snow 33 0.6 29 -1.7 85 85 SE 12 19 30.28 1025 1 1.60934 0.001 0.001
2:02 pm 14:02 Cloudy with Light Rain 34 1.1 30 -1.1 85 85 SE 13 20 30.28 1025 4 6.43736 0.01 0.254
2:52 pm 14:52 Cloudy with Mist and Fog 35 1.7 31 -0.6 85 85 ESE 13 20 30.22 1023 5 8.0467 0.02 0.508
3:37 pm 15:37 Cloudy 36 2.2 31 -0.6 82 82 SE 16 26 30.17 1022 7 11.26538 0 0
3:52 pm 15:52 Cloudy 36 2.2 31 -0.6 82 82 SE 15 24 30.13 1020 8 12.87472 0 0
4:52 pm 16:52 Mostly Cloudy 39 3.9 31 -0.6 73 73 SSE 13 20 30.12 1020 10 16.0934 0 0
5:52 pm 17:52 Mostly Cloudy 40 4.4 33 0.6 77 77 SSE 12 19 30.1 1019 10 16.0934 0 0
6:52 pm 18:52 Cloudy with Light Rain 40 4.4 34 1.1 79 79 SSE 10 17 30.08 1019 10 16.0934 0.001 0.001
7:52 pm 19:52 Cloudy with Light Rain 42 5.6 35 1.7 76 76 SSE 17 28 30.03 1017 10 16.0934 0.001 0.001
8:52 pm 20:52 Cloudy with Light Rain 44 6.7 37 2.8 76 76 S 13 20 30.04 1017 9 14.48406 0.04 1.016
9:52 pm 21:52 Cloudy with Light Rain 44 6.7 37 2.8 76 76 S 10 17 30.02 1017 8 12.87472 0.02 0.508
10:52 pm 22:52 Cloudy with Light Rain 43 6.1 38 3.3 82 82 S 10 17 30.02 1017 10 16.0934 0.09 2.286
11:52 pm 23:52 Cloudy 45 7.2 38 3.3 77 77 SSW 13 20 30.01 1016 10 16.0934 0.001 0.001

Powered by AerisWeather